Preview of NWS' New Version of Forecast
This preview is not operational and should not be used for support decisions.

Regional Weather Roundup (RWR)

Issued by National Weather Service (NWS)

                            
000
ASUS44 KMEG 211500
RWRTN 
TENNESSEE HOURLY STATE WEATHER ROUNDUP
NATIONAL WEATHER SERVICE MEMPHIS TN
1000 AM CDT SUN JUL 21 2019

TNZ002-004-019-021-049-052-054-088>092-211600-
WEST TENNESSEE
  
CITY           SKY/WX    TMP DP  RH WIND       PRES   REMARKS
MEMPHIS INTL   FAIR      84  77  79 SW5       30.00F HX  94           
NWS MEMPHIS      N/A     84 N/A N/A MISG        N/A                   
JACKSON        CLOUDY    76  74  93 S8        30.03S                  
DYERSBURG      PTSUNNY   83  78  85 VRB3      30.01R HX  93           
$$

TNZ008-025-027-028-033-062-065-066-211600-
NORTH MIDDLE TENNESSEE
  
CITY           SKY/WX    TMP DP  RH WIND       PRES   REMARKS
NASHVILLE      CLOUDY    78  73  84 VRB5      30.04S                  
CLARKSVILLE    CLOUDY    80  75  84 SW6       30.01S                  
SMYRNA         CLOUDY    76  73  91 S5        30.06R                  
CROSSVILLE     CLOUDY    74  69  85 VRB3      30.12S                  
$$

TNZ061-075-076-078-094-096-097-211600-
SOUTH MIDDLE TENNESSEE
  
CITY           SKY/WX    TMP DP  RH WIND       PRES   REMARKS
$$

TNZ017-018-042-046-047-211600-
NORTHEAST TENNESSEE
  
CITY           SKY/WX    TMP DP  RH WIND       PRES   REMARKS
TRI CITIES     CLOUDY    79  71  76 VRB3      30.10S                  
$$

TNZ012-013-036-069-073-074-211600-
CENTRAL EAST TENNESSEE
  
CITY           SKY/WX    TMP DP  RH WIND       PRES   REMARKS
KNOXVILLE      CLOUDY    82  71  69 SW14      30.06F                  
OAK RIDGE      PTSUNNY   81  72  74 W6        30.08S                  
$$

TNZ083-085-099-211600-
SOUTHEAST TENNESSEE
  
CITY           SKY/WX    TMP DP  RH WIND       PRES   REMARKS
CHATTANOOGA    PTSUNNY   80  71  74 SE5       30.08S                  
$$

SKY/WX REPORTED AS FAIR MEANS FEW OR NO CLOUDS BELOW
12 THOUSAND FEET.